Tracking 31027 objects as of 19-Jul-2025
HD Live streaming from Space Station
objects crossing your sky now

COSMOS 2013

Track COSMOS 2013 now!
10-day predictions
COSMOS 2013 is classified as:


NORAD ID: 19907
Int'l Code: 1989-025F
Perigee: 1,471.8 km
Apogee: 1,486.8 km
Inclination: 74.0 °
Period: 115.4 minutes
Semi major axis: 7850 km
RCS: 0.7071 m2 (medium)
Launch date: March 24, 1989
Source: Commonwealth of Independent States (former USSR) (CIS)
Launch site: PLESETSK MISSILE AND SPACE COMPLEX (PKMTR)
Your satellite tracking list
MOLNIYA 1-86
Track 1 satellite(s)




NASA's NSSDC Master Catalog

Two Line Element Set (TLE):
1 19907U 89025F   25199.47157506 -.00000025  00000-0 -60004-4 0  9994
2 19907  74.0099  89.1941 0009529 155.6387  17.9428 12.48171471654809
Source of the keplerian elements: AFSPC